Tracking 28794 objects as of 19-Apr-2024
HD Live streaming from Space Station
objects crossing your sky now

SL-12 DEB

Track SL-12 DEB now!
10-day predictions


NORAD ID: 41560
Int'l Code: 2008-067J
Perigee: 752.8 km
Apogee: 18,815.8 km
Inclination: 65.4 °
Period: 340.6 minutes
Semi major axis: 16155 km
RCS: Unknown
Launch date: December 25, 2008
Source: Commonwealth of Independent States (former USSR) (CIS)
Launch site: TYURATAM MISSILE AND SPACE COMPLEX (TTMTR)

Note: This is SATELLITE DEBRIS
Your satellite tracking list
Your tracking list is empty




NASA's NSSDC Master Catalog

Two Line Element Set (TLE):
1 41560U 08067J   24110.29849209  .00000255  00000-0  25318-2 0  9991
2 41560  65.3898  92.2138 5590403 280.5023  24.0587  4.22795489124326
Source of the keplerian elements: AFSPC